CDT,Max TemperatureF,Mean TemperatureF,Min TemperatureF,Max Dew PointF,MeanDew PointF,Min DewpointF,Max Humidity, Mean Humidity, Min Humidity, Max Sea Level PressureIn, Mean Sea Level PressureIn, Min Sea Level PressureIn, Max VisibilityMiles, Mean VisibilityMiles, Min VisibilityMiles, Max Wind SpeedMPH, Mean Wind SpeedMPH, Max Gust SpeedMPH,PrecipitationIn, CloudCover, Events, WindDirDegrees
2012-9-1,78,75,71,73,72,70,100,90,79,29.84,29.79,29.75,10,6,2,14,8,18,0.22,8,Rain,123
2012-9-2,85,77,69,72,70,67,100,83,65,29.93,29.87,29.82,10,7,1,15,8,20,T,7,Rain,321
2012-9-3,94,81,68,72,70,67,100,71,41,29.94,29.90,29.85,10,6,0,12,5,15,0.00,0,Fog,341
2012-9-4,94,83,72,73,71,67,93,67,41,29.98,29.88,29.80,10,9,3,15,5,20,0.17,3,Rain-Thunderstorm,168
2012-9-5,91,82,72,75,71,67,87,67,47,29.88,29.82,29.77,10,10,2,21,6,28,0.07,2,Rain-Thunderstorm,125
2012-9-6,91,80,69,70,67,63,93,72,50,29.96,29.90,29.87,10,10,10,22,7,26,T,2,,115
2012-9-7,95,78,60,70,65,58,93,67,41,29.98,29.83,29.68,10,9,2,37,11,44,0.66,2,Rain-Thunderstorm,296
2012-9-8,75,65,54,58,51,47,93,66,38,30.09,30.03,29.99,10,10,10,20,10,28,0.00,0,,308
2012-9-9,76,65,54,52,50,48,83,61,38,30.16,30.09,29.96,10,10,7,20,9,25,0.00,0,,6
2012-9-10,80,67,54,55,52,50,83,60,36,30.21,30.14,30.07,10,10,10,14,7,18,0.00,0,,131
2012-9-11,88,72,56,59,56,53,86,59,31,30.13,30.08,30.02,10,10,10,14,9,18,0.00,0,,164
2012-9-12,87,75,62,61,58,56,84,60,36,30.14,30.09,30.04,10,10,10,17,9,21,0.00,0,,162
2012-9-13,74,63,52,62,56,48,93,80,66,30.34,30.23,30.12,10,10,10,23,10,26,0.02,6,Rain,40
2012-9-14,68,60,51,56,52,48,100,79,58,30.37,30.34,30.30,10,9,5,16,7,20,0.42,4,Rain,43
2012-9-15,68,62,56,54,52,49,93,73,52,30.31,30.23,30.14,10,10,10,15,6,21,0.00,6,,106
2012-9-16,75,67,58,63,59,53,93,79,64,30.12,30.05,29.97,10,10,10,9,3,13,0.00,6,,108
2012-9-17,77,67,56,66,63,49,100,82,64,29.97,29.91,29.80,10,7,0,24,6,30,T,7,Fog-Rain,226
2012-9-18,68,58,48,49,42,36,100,67,34,30.09,30.03,29.96,10,10,9,17,7,28,0.00,0,,310
2012-9-19,79,62,44,52,45,38,77,56,35,30.10,30.02,29.92,10,10,10,24,12,30,0.00,0,,179
2012-9-20,78,67,56,53,45,35,80,51,22,30.01,29.98,29.93,10,10,10,18,7,23,0.00,0,,294
2012-9-21,84,69,54,61,48,42,77,53,28,30.00,29.86,29.73,10,10,10,25,11,33,0.00,1,,231
2012-9-22,69,58,46,46,38,30,83,53,23,30.25,30.10,29.93,10,10,10,20,9,24,0.00,0,,328
2012-9-23,69,54,39,42,36,34,92,60,27,30.36,30.29,30.25,10,10,10,12,4,14,0.00,0,,40
2012-9-24,74,59,44,53,44,36,83,61,38,30.25,30.09,29.89,10,10,10,18,9,23,0.00,0,,155
2012-9-25,82,72,61,70,62,52,90,74,58,29.97,29.84,29.78,10,10,5,31,8,39,0.59,2,Rain-Thunderstorm,192
2012-9-26,76,69,62,66,63,61,100,82,64,30.09,29.99,29.84,10,10,5,20,5,28,0.05,3,Rain,271
2012-9-27,70,65,60,65,62,59,100,92,84,30.17,30.12,30.08,10,6,0,12,5,14,0.04,6,Fog,51
2012-9-28,73,63,52,63,54,47,100,72,44,30.19,30.14,30.10,10,10,7,9,5,28,T,5,Rain,67
2012-9-29,76,62,48,52,48,44,83,60,36,30.17,30.09,30.02,10,10,10,9,4,15,0.00,0,,41
2012-9-30,76,65,53,55,51,48,83,61,38,30.00,29.92,29.86,10,10,10,10,4,13,0.00,0,,16